DW8791 Weather Reports


Display with metric or nautical units.
time (UTC)temp
F
wind
direction
speed
MPH
gust
MPH
rain 1hr
in
rain 24hr
in
rain mn
in
humidity
%
barometer
mb
20260507161607 55 124 9.0 18.0 0.00 0.00 0.00 74 1014.6
20260507161106 55 112 9.0 18.0 0.00 0.00 0.00 73 1014.6
20260507160607 55 126 9.0 18.0 0.00 0.00 0.00 74 1014.6
20260507154607 55 148 8.0 16.0 0.00 0.00 0.00 73 1014.7
20260507154106 55 121 6.0 13.0 0.00 0.00 0.00 73 1014.7
20260507153608 55 142 9.0 15.0 0.00 0.00 0.00 73 1014.7
20260507153106 55 125 9.0 20.0 0.00 0.00 0.00 73 1014.7
20260507151607 55 118 10.0 17.0 0.00 0.00 0.00 71 1014.7
20260507151106 56 129 9.0 17.0 0.00 0.00 0.00 71 1014.7
20260507150607 56 128 7.0 17.0 0.00 0.00 0.00 72 1014.7
20260507150106 56 140 9.0 17.0 0.00 0.00 0.00 70 1014.7
20260507144607 56 131 7.0 14.0 0.00 0.00 0.00 70 1014.7
20260507143607 56 115 6.0 14.0 0.00 0.00 0.00 69 1014.8
20260507141107 57 129 7.0 18.0 0.00 0.00 0.00 67 1015.0
20260507140607 57 131 7.0 18.0 0.00 0.00 0.00 67 1014.9
20260507140107 58 134 7.0 17.0 0.00 0.00 0.00 67 1015.0
20260507134607 57 137 6.0 14.0 0.00 0.00 0.00 66 1015.0
20260507134107 57 123 9.0 14.0 0.00 0.00 0.00 67 1015.0
20260507133607 57 114 6.0 14.0 0.00 0.00 0.00 67 1015.0
20260507133106 57 120 7.0 13.0 0.00 0.00 0.00 65 1015.0
20260507131607 57 121 7.0 15.0 0.00 0.00 0.00 66 1015.1
20260507131108 56 127 8.0 15.0 0.00 0.00 0.00 66 1015.1
20260507130606 56 134 8.0 15.0 0.00 0.00 0.00 65 1015.1
20260507130107 57 148 8.0 15.0 0.00 0.00 0.00 63 1015.1
20260507124607 57 116 7.0 14.0 0.00 0.00 0.00 64 1015.1
20260507124108 57 140 5.0 12.0 0.00 0.00 0.00 64 1015.1
20260507123607 56 112 5.0 12.0 0.00 0.00 0.00 65 1015.2
20260507123107 57 147 7.0 12.0 0.00 0.00 0.00 63 1015.2
20260507121606 57 147 5.0 12.0 0.00 0.00 0.00 64 1015.3
20260507120607 57 125 5.0 9.0 0.00 0.00 0.00 63 1015.3
20260507120108 57 132 5.0 12.0 0.00 0.00 0.00 61 1015.3
20260507114606 57 123 6.0 12.0 0.00 0.00 0.00 62 1015.4
20260507113107 57 125 6.0 10.0 0.00 0.00 0.00 60 1015.4
20260507111606 57 89 6.0 12.0 0.00 0.00 0.00 61 1015.5
20260507111107 57 128 6.0 12.0 0.00 0.00 0.00 60 1015.5
20260507110607 56 118 3.0 9.0 0.00 0.00 0.00 62 1015.6
20260507110108 56 156 3.0 9.0 0.00 0.00 0.00 58 1015.6
20260507104607 57 168 1.0 8.0 0.00 0.00 0.00 56 1015.7
20260507104107 57 188 3.0 8.0 0.00 0.00 0.00 57 1015.7
20260507103607 57 202 2.0 9.0 0.00 0.00 0.00 57 1015.7
20260507103107 57 206 4.0 10.0 0.00 0.00 0.00 57 1015.8
20260507101108 56 127 3.0 10.0 0.00 0.00 0.00 61 1015.7
20260507100607 55 145 3.0 10.0 0.00 0.00 0.00 61 1015.8
20260507100107 55 149 5.0 10.0 0.00 0.00 0.00 62 1015.8
20260507094106 56 178 2.0 8.0 0.00 0.00 0.00 60 1015.7
20260507093607 56 152 5.0 9.0 0.00 0.00 0.00 58 1015.7
20260507093106 56 145 5.0 9.0 0.00 0.00 0.00 58 1015.7
20260507091607 54 136 2.0 9.0 0.00 0.00 0.00 62 1015.8
20260507091107 54 199 5.0 9.0 0.00 0.00 0.00 63 1015.8
20260507090606 54 147 4.0 8.0 0.00 0.00 0.00 64 1015.8
20260507084607 53 198 1.0 7.0 0.00 0.00 0.00 66 1015.9
20260507083107 52 178 3.0 7.0 0.00 0.00 0.00 67 1015.9
20260507080108 52 152 3.0 9.0 0.00 0.00 0.00 70 1016.0
20260507074606 51 168 3.0 8.0 0.00 0.00 0.00 73 1016.0
20260507074106 51 115 3.0 9.0 0.00 0.00 0.00 74 1016.0
20260507073607 51 155 4.0 9.0 0.00 0.00 0.00 73 1016.0
20260507073107 51 138 3.0 8.0 0.00 0.00 0.00 74 1016.0
20260507071606 51 164 2.0 7.0 0.00 0.00 0.00 73 1015.9
20260507071106 51 124 2.0 7.0 0.00 0.00 0.00 73 1015.9
20260507070107 51 129 2.0 5.0 0.00 0.00 0.00 73 1015.9
20260507064607 49 285 0.0 2.0 0.00 0.00 0.00 74 1015.9
20260507064106 48 259 0.0 2.0 0.00 0.00 0.00 74 1015.9
20260507063607 48 27 0.0 0.0 0.00 0.00 0.00 75 1015.9
20260507063107 47 35 0.0 0.0 0.00 0.00 0.00 76 1015.8
20260507060607 44 351 0.0 0.0 0.00 0.00 0.00 80 1015.7
20260507060106 44 351 0.0 0.0 0.00 0.00 0.00 81 1015.6
20260507054606 41 351 0.0 0.0 0.00 0.00 0.00 83 1015.7
20260507054107 41 354 0.0 0.0 0.00 0.00 0.00 84 1015.7
20260507053607 41 355 0.0 0.0 0.00 0.00 0.00 85 1015.7
20260507053106 40 355 0.0 0.0 0.00 0.00 0.00 86 1015.7
20260507051606 39 351 0.0 0.0 0.00 0.00 0.00 87 1015.8
20260507050606 39 351 0.0 0.0 0.00 0.00 0.00 88 1015.7
20260507050106 38 351 0.0 0.0 0.00 0.00 0.00 89 1015.7
20260507044608 38 355 0.0 2.0 0.00 0.00 0.00 88 1015.6
20260507043607 38 351 0.0 0.0 0.00 0.00 0.00 88 1015.5
20260507043107 38 351 0.0 0.0 0.00 0.00 0.00 88 1015.5
20260507041607 38 351 0.0 0.0 0.00 0.00 0.00 88 1015.5
20260507041106 38 351 0.0 0.0 0.00 0.00 0.00 88 1015.5
20260507040606 38 351 0.0 0.0 0.00 0.00 0.00 88 1015.6
20260507040107 38 351 0.0 2.0 0.00 0.00 0.00 88 1015.6
20260507034606 38 351 0.0 2.0 0.00 0.00 0.00 87 1015.5
20260507034107 38 351 0.0 2.0 0.00 0.00 0.00 87 1015.6
20260507033606 38 351 0.0 3.0 0.00 0.00 0.00 87 1015.6
20260507033107 39 351 1.0 3.0 0.00 0.00 0.00 87 1015.6
20260507031608 39 348 0.0 3.0 0.00 0.00 0.00 87 1015.6
20260507031106 39 346 1.0 3.0 0.00 0.00 0.00 87 1015.6
20260507030107 39 5 0.0 0.0 0.00 0.00 0.00 87 1015.6
20260507024606 39 5 0.0 0.0 0.00 0.00 0.00 86 1015.5
20260507024107 39 5 0.0 0.0 0.00 0.00 0.00 86 1015.5
20260507023606 39 5 0.0 0.0 0.00 0.00 0.00 86 1015.5
20260507023106 39 334 0.0 0.0 0.00 0.00 0.00 86 1015.5
20260507021608 40 341 0.0 0.0 0.00 0.00 0.00 85 1015.5
20260507021107 40 341 0.0 0.0 0.00 0.00 0.00 85 1015.5
20260507020607 40 341 0.0 0.0 0.00 0.00 0.00 85 1015.4
20260507020106 40 341 0.0 0.0 0.00 0.00 0.00 85 1015.4
20260507014608 40 341 0.0 0.0 0.00 0.00 0.00 84 1015.3
20260507014107 41 341 0.0 0.0 0.00 0.00 0.00 84 1015.4
20260507013106 41 341 0.0 0.0 0.00 0.00 0.00 84 1015.5
20260507011606 41 336 0.0 0.0 0.00 0.00 0.00 83 1015.4
20260507011107 41 336 0.0 0.0 0.00 0.00 0.00 83 1015.5
20260507010607 41 336 0.0 0.0 0.00 0.00 0.00 82 1015.5
20260507010107 42 336 0.0 0.0 0.00 0.00 0.00 82 1015.5
20260507004607 43 336 0.0 0.0 0.00 0.00 0.00 81 1015.4
20260507003606 43 336 0.0 0.0 0.00 0.00 0.00 81 1015.4
20260507003107 43 336 0.0 0.0 0.00 0.00 0.00 81 1015.4
20260507001606 44 336 0.0 2.0 0.00 0.00 0.00 80 1015.4
20260507001106 44 336 0.0 2.0 0.00 0.00 0.00 80 1015.5
20260507000107 44 349 1.0 3.0 0.00 0.00 0.00 78 1015.5
20260506234607 46 335 1.0 2.0 0.00 0.00 0.00 75 1015.5
20260506234107 46 105 0.0 2.0 0.00 0.00 0.00 75 1015.5
20260506233607 47 105 0.0 2.0 0.00 0.00 0.00 74 1015.5
20260506231606 47 116 2.0 8.0 0.00 0.00 0.00 74 1015.5
20260506224607 47 127 2.0 7.0 0.00 0.00 0.00 74 1015.5
20260506223606 47 109 3.0 7.0 0.00 0.00 0.00 74 1015.5
20260506223107 47 113 2.0 7.0 0.00 0.00 0.00 74 1015.5
20260506221606 46 126 1.0 3.0 0.00 0.00 0.00 74 1015.4
20260506221106 46 67 2.0 3.0 0.00 0.00 0.00 74 1015.3
20260506220107 46 106 2.0 3.0 0.00 0.00 0.00 74 1015.3
20260506214607 46 71 0.0 0.0 0.00 0.00 0.00 74 1015.4
20260506214107 46 71 0.0 0.0 0.00 0.00 0.00 74 1015.4
20260506213606 46 47 0.0 0.0 0.00 0.00 0.00 74 1015.4
20260506213107 46 64 0.0 0.0 0.00 0.00 0.00 73 1015.4
20260506211607 47 80 1.0 3.0 0.00 0.00 0.00 73 1015.4
20260506210607 47 67 2.0 3.0 0.00 0.00 0.00 72 1015.4
20260506210108 47 81 2.0 3.0 0.00 0.00 0.00 72 1015.4
20260506204606 47 56 2.0 3.0 0.00 0.00 0.00 72 1015.4
20260506204106 47 70 2.0 3.0 0.00 0.00 0.00 71 1015.4
20260506203606 47 75 2.0 6.0 0.00 0.00 0.00 71 1015.3
20260506203108 47 81 2.0 6.0 0.00 0.00 0.00 71 1015.3
20260506201607 47 82 3.0 6.0 0.00 0.00 0.00 71 1015.3
20260506201108 47 67 3.0 8.0 0.00 0.00 0.00 71 1015.2
20260506194607 48 71 2.0 9.0 0.00 0.00 0.00 71 1015.1
20260506194106 48 80 4.0 9.0 0.00 0.00 0.00 71 1015.1
20260506193107 48 79 5.0 10.0 0.00 0.00 0.00 69 1015.0
20260506191107 49 70 4.0 10.0 0.00 0.00 0.00 67 1014.9
20260506190606 49 92 5.0 10.0 0.00 0.00 0.00 67 1015.0
20260506184606 49 75 6.0 12.0 0.00 0.00 0.00 66 1014.8
20260506184107 49 79 6.0 12.0 0.00 0.00 0.00 66 1014.9
20260506183607 49 70 5.0 12.0 0.00 0.00 0.00 66 1014.8
20260506181606 50 62 6.0 10.0 0.00 0.00 0.00 66 1014.8
20260506181106 50 68 3.0 10.0 0.00 0.00 0.00 66 1014.8
20260506180606 50 74 5.0 10.0 0.00 0.00 0.00 65 1014.8
20260506180106 50 61 3.0 10.0 0.00 0.00 0.00 64 1014.7
20260506174107 50 58 4.0 13.0 0.00 0.00 0.00 63 1014.7
20260506173607 50 103 3.0 12.0 0.00 0.00 0.00 64 1014.6
20260506173107 50 47 5.0 12.0 0.00 0.00 0.00 64 1014.6
20260506171107 50 77 4.0 13.0 0.00 0.00 0.00 63 1014.6
20260506170606 50 62 6.0 13.0 0.00 0.00 0.00 63 1014.7
20260506170106 51 104 6.0 12.0 0.00 0.00 0.00 63 1014.7
20260506163606 51 62 7.0 12.0 0.00 0.00 0.00 61 1014.6
20260506163107 51 57 5.0 12.0 0.00 0.00 0.00 62 1014.5